This is the latest recevied weather packets stored in our database for station/object F5ZQC-13. If no packets are shown the sender has not sent any weather packets the latest 10 day(s).
| Time | Temp. | Humidity | Pressure | Rain* | Wind** | Luminosity | Snow |
|---|---|---|---|---|---|---|---|
| 1777619466 | 17.78° C | 58% | 1017.5 hPa | 0 mm | - | - | - |
| 1777619273 | 17.78° C | 56% | 1017.4 hPa | 0 mm | - | - | - |
| 1777619173 | 17.78° C | 58% | 1017.6 hPa | 0 mm | - | - | - |
| 1777619051 | 17.22° C | 58% | 1017.6 hPa | 0 mm | - | - | - |
| 1777618806 | 17.22° C | 59% | 1017.2 hPa | 0 mm | - | - | - |
| 1777618576 | 17.22° C | 58% | 1017.3 hPa | 0 mm | - | - | - |
| 1777618511 | 17.22° C | 57% | 1017.4 hPa | 0 mm | - | - | - |
| 1777618454 | 17.22° C | 57% | 1017.4 hPa | 0 mm | - | - | - |
| 1777618270 | 16.67° C | 58% | 1017.1 hPa | 0 mm | - | - | - |
| 1777618064 | 16.67° C | 60% | 1017.5 hPa | 0 mm | - | - | - |
| 1777617756 | 16.67° C | 56% | 1017.2 hPa | 0 mm | - | - | - |
| 1777617630 | 16.67° C | 60% | 1017.2 hPa | 0 mm | - | - | - |
| 1777617508 | 16.67° C | 59% | 1017.3 hPa | 0 mm | - | - | - |
| 1777617264 | 16.11° C | 60% | 1017.2 hPa | 0 mm | - | - | - |
| 1777617152 | 16.11° C | 59% | 1017.4 hPa | 0 mm | - | - | - |
| 1777617052 | 16.11° C | 60% | 1017.3 hPa | 0 mm | - | - | - |
| 1777616930 | 16.11° C | 59% | 1017.4 hPa | 0 mm | - | - | - |
| 1777616808 | 16.11° C | 58% | 1017.3 hPa | 0 mm | - | - | - |
| 1777616686 | 16.11° C | 59% | 1017.2 hPa | 0 mm | - | - | - |
| 1777616240 | 16.11° C | 58% | 1017.3 hPa | 0 mm | - | - | - |
| 1777615996 | 16.11° C | 61% | 1017.4 hPa | 0 mm | - | - | - |
| 1777615933 | 16.11° C | 59% | 1017.2 hPa | 0 mm | - | - | - |
| 1777615815 | 15.56° C | 57% | 1017.3 hPa | 0 mm | - | - | - |
| 1777615693 | 15.56° C | 58% | 1017.4 hPa | 0 mm | - | - | - |
| 1777615571 | 15.56° C | 59% | 1017.1 hPa | 0 mm | - | - | - |
* Rain since midnight (hover to see other rain measurements)
** Current wind speed in m/s (hover to see current wind gust speed)